JBU615 KJFK-KSFO

Flight info

Callsign JBU615
Flight time N/A
Altitude 30000
Route GAYEL Q818 WOZEE TETOS OMRAK Q935 MONEE CHDRR OHHMY EYHUX SAUGI BOKKI SAE FONTO RLG ILC OAL INYOE DYAMD5
Aircraft A321/M-SDE3FGHIRWY/LB1

Departure

Time 2026-05-06 18:05
Airport John F. Kennedy International Airport (KJFK)

Arrival

Time N/A
Airport San Francisco International Airport (KSFO)
Time Latitude Longitude Altitude Speed Heading
2026-05-06 18:00 40.65091 -73.76455 50 ft 0 kts 118°
2026-05-06 18:03 40.65090 -73.76454 50 ft 2 kts 118°
2026-05-06 18:03 40.65071 -73.76409 24 ft 6 kts 121°
2026-05-06 18:04 40.65017 -73.76364 22 ft 13 kts 187°
2026-05-06 18:04 40.64859 -73.76481 21 ft 54 kts 210°
2026-05-06 18:04 40.64351 -73.76865 20 ft 112 kts 212°
2026-05-06 18:04 40.63541 -73.77511 27 ft 158 kts 211°
2026-05-06 18:05 40.62543 -73.78301 457 ft 171 kts 209°
2026-05-06 18:05 40.61521 -73.79092 1211 ft 170 kts 210°
2026-05-06 18:05 40.60460 -73.79879 1430 ft 183 kts 207°
2026-05-06 18:05 40.59166 -73.80247 1540 ft 206 kts 177°
2026-05-06 18:06 40.57763 -73.79439 1710 ft 240 kts 145°
2026-05-06 18:06 40.56764 -73.77545 2073 ft 267 kts 115°
2026-05-06 18:06 40.56549 -73.75059 2566 ft 284 kts 86°
2026-05-06 18:06 40.56957 -73.72510 3080 ft 292 kts 78°
2026-05-06 18:07 40.57499 -73.69879 3640 ft 296 kts 77°
2026-05-06 18:07 40.58056 -73.67276 4199 ft 300 kts 78°
2026-05-06 18:07 40.58635 -73.64615 4708 ft 306 kts 79°
2026-05-06 18:07 40.59273 -73.61905 5180 ft 312 kts 78°
2026-05-06 18:08 40.59983 -73.59185 5710 ft 318 kts 69°
2026-05-06 18:08 40.61266 -73.56796 6232 ft 326 kts 44°
2026-05-06 18:08 40.63013 -73.54863 6739 ft 329 kts 38°
2026-05-06 18:08 40.64829 -73.53006 7245 ft 332 kts 37°
2026-05-06 18:09 40.66665 -73.51144 7757 ft 334 kts 33°